Kosmos-516

operational
NORAD ID: 6154 Int'l Des: 1972-066 Owner: TSKBM Country: SU
LEOCIRCULAR

Kosmos-516について

説明を読み込み中...

リアルタイム位置

3D地球を読み込み中...

次回通過

高度履歴

Altitude vs Time

uPlot chart will show altitude changes over time

軌道要素

1 6154U 72066A 26061.14257477 -.00000051 00000-0 37482-4 0 9994
2 6154 64.8094 106.5357 0057458 136.7801 223.7785 13.77807246693176
Epoch: Mar 2, 2026 • Age: 36 hours

現在のステータス

高度 979.9 km
速度 7.36 km/s
衛星直下点 -36.33°S, 35.69°W
タイプ other

大規模コンステレーション

Loading constellations...